Regional Weather Roundup
Issued by NWS

Home | Current Version | Previous Version | Text Only | Print | Product List | Glossary On
Versions: 1 2 3 4 5 6 7 8 9 10 11 12 13 14 15 16 17 18 19 20 21 22 23 24 25 26 27 28 29 30 31 32 33 34 35 36 37 38 39 40 41 42 43 44 45 46 47 48 49 50
000
ASUS43 KBIS 251131
RWRND
NORTH DAKOTA REGIONAL WEATHER ROUNDUP
NATIONAL WEATHER SERVICE EASTERN NORTH DAKOTA/GRAND FORKS ND
600 AM CDT WED APR 25 2018

  NOTE: "FAIR" INDICATES FEW OR NO CLOUDS BELOW 12,000 FEET WITH NO
  SIGNIFICANT WEATHER AND/OR OBSTRUCTIONS TO VISIBILITY.

NDZ001>003-009>011-017-251200-
...NORTHWEST NORTH DAKOTA...

CITY           SKY/WX    TMP DP  RH WIND       PRES   REMARKS
WILLISTON      FAIR      38  31  76 SW7       30.12F WCI  33
MINOT          FAIR      42  30  62 SW14      30.12F
MINOT AFB      FAIR      41  30  65 SW14      30.10F
$$

NDZ018>021-031>035-040>046-251200-
...SOUTHWEST NORTH DAKOTA...

CITY           SKY/WX    TMP DP  RH WIND       PRES   REMARKS
BISMARCK       FAIR      31  27  85 CALM      30.24F
DICKINSON      FAIR      33  28  81 S14       30.18F WCI  23
GARRISON         N/A     32  28  85 S5        30.17F WCI  27
HETTINGER      FAIR      30  24  78 SW8       30.25F WCI  22
$$

NDZ004>008-012>016-024-026-027-054-251200-
...NORTHEAST NORTH DAKOTA...

CITY           SKY/WX    TMP DP  RH WIND       PRES   REMARKS
GRAND FORKS    FAIR      32  30  92 S10       30.20F WCI  24
GRAND FORKS AF FAIR      36  28  73 SW12      30.20F WCI  28
DEVILS LAKE    FAIR      35  28  75 SW10      30.17F WCI  27
$$

NDZ022-023-025-028>030-036>039-047>053-251200-
...SOUTHEAST NORTH DAKOTA...

CITY           SKY/WX    TMP DP  RH WIND       PRES   REMARKS
JAMESTOWN      FAIR      32  27  81 SW7       30.23F WCI  26
FARGO          FAIR      29  27  92 S8        30.27S WCI  21
WAHPETON       FAIR      30  27  86 SW5       30.29F WCI  25
$$




USA.gov is the U.S. government's official web portal to all federal, state and local government web resources and services.